Regional Weather Roundup
Issued by NWS

Home | Current Version | Previous Version | Text Only | Print | Product List | Glossary On
Versions: 1 2 3 4 5 6 7 8 9 10 11 12 13 14 15 16 17 18 19 20 21 22 23 24 25 26 27
000
ASUS46 KPQR 150810
RWROR

OREGON REGIONAL WEATHER ROUNDUP
NATIONAL WEATHER SERVICE PORTLAND OR
1200 AM PST FRI DEC 15 2017

NOTE: "FAIR" INDICATES FEW OR NO CLOUDS BELOW 12,000 FEET WITH
NO SIGNIFICANT WEATHER AND/OR OBSTRUCTIONS TO VISIBILITY.

ORZ001>013-150900-
NORTHWEST OREGON


CITY           SKY/WX    TMP DP  RH WIND       PRES   REMARKS
ASTORIA        CLOUDY    34  31  88 CALM      30.23S
NEWPORT        MOCLDY    41  32  70 E7        30.27S
PORTLAND       PTCLDY    36  29  75 NE5       30.31R WCI  32
VANCOUVER WA   CLEAR     31  28  89 CALM      30.29S
SCAPPOOSE      PTCLDY    29  28  96 W3        30.29F
HILLSBORO      CLEAR     29  26  89 CALM      30.28F
AURORA         PTCLDY    31  26  82 CALM      30.30S
MCMINNVILLE    CLEAR     31  28  89 CALM      30.29S
SALEM          CLEAR     31  26  82 CALM      30.28S
CORVALLIS      CLEAR     28  27  96 CALM      30.29R
EUGENE         CLEAR     27  26  96 SW5       30.28F WCI  22
$$

ORZ021-028-150900-
SOUTHWEST OREGON


CITY           SKY/WX    TMP DP  RH WIND       PRES   REMARKS
NORTH BEND     PTCLDY    38  36  92 SE5       30.25F WCI  34
BROOKINGS      PTCLDY    46  43  89 E3        30.20
ROSEBURG       FOG       33  33 100 E3        30.27F VSB 1/4
SEXTON SUMMIT  PTCLDY    53  18  25 SE7       30.24S
GRANTS PASS    FOG       30  30 100 CALM      30.32S VSB 1/4
MEDFORD        CLEAR     30  29  96 CALM      30.27S FOG
$$

ORZ014>016-041-150900-
COLUMBIA GORGE


CITY           SKY/WX    TMP DP  RH WIND       PRES   REMARKS
TROUTDALE      PTCLDY    37  26  64 E13       30.30R WCI  29
HOOD RIVER     CLOUDY    32  27  80 E5        30.41F WCI  27
THE DALLES     CLOUDY    35  26  69 S6        30.42F WCI  30
$$

ORZ029>031-041-044-049-050-061>064-502-503-505>511-150900-
EASTERN OREGON


CITY           SKY/WX    TMP DP  RH WIND       PRES   REMARKS
MADRAS         CLOUDY   N/A N/A N/A S6        30.32F
REDMOND        MOCLDY    15  11  83 CALM      30.27F
BEND           MOCLDY    21  19  93 SE7       30.27F WCI  13
PRINEVILLE     PTCLDY    14  10  85 CALM      30.27F
KLAMATH FALLS  PTCLDY    23  21  92 S3        30.30S
LAKEVIEW       PTCLDY    18  16  92 CALM      30.31F
HERMISTON      CLOUDY    31  28  89 W5        30.40F WCI  26
PENDLETON      CLOUDY    28  24  85 W6        30.34F WCI  22
JOHN DAY       PTCLDY    31  24  74 E9        30.28F WCI  23
MEACHAM        CLEAR     24  20  84 CALM      30.23F
LA GRANDE      PTCLDY    23  20  88 NW5       30.35F WCI  17
BAKER CITY     CLOUDY    26  21  81 E6        30.37F WCI  19
BURNS          FOG       14  14 100 CALM      30.33F VSB 1/2
ROME             N/A     16  13  88 SE3       30.33F
ONTARIO        CLOUDY    29  24  82 SE3       30.50F
$$




USA.gov is the U.S. government's official web portal to all federal, state and local government web resources and services.